Winnerscup USA - 1

Station: Loft Fly - T Race

Distance: 1 Miles

Release: 10-Jan-2018 13:30

Weather Release:    Arrival: same

Wind at Release:     Wind at Arrival:

Temp at Release: °    Temp at Arrival: °

Lofts: 53

Birds: 285

Clocked: 283

Good Luck to Everyone!
Drops Pos Breeder Pigeon Name Color Sex Ent Arrival Speed To Win Eligible ABC
1 Aurelio Aranda - AZ 42211-AU17-AA Mind Game BB C 1 15:18:39.00 16.199 00:00:00 Yes
2 Dal-Tex R P C - TX 0448-AU17-DLLS Esmeralda BC H 1 15:38:02.00 13.746 00:19:23 Yes
2 Walstons Warriors - NC 7405-AU17-GL Catherine The Great BB H 1 15:38:02.00 13.746 00:19:23 Yes
4 Hollywood Lou Loft - FL 0062-AU17-LOU Midnite Lace BB H 1 15:38:05.00 13.741 00:19:26 Yes
4 Huan Qiu Zhang - NC 1708-AU17-JNC EZ ryder BC C 1 15:38:05.00 13.741 00:19:26 Hold
6 Tanai Kantisiri - CA 2928-AU17-COM Platinum BB C 1 15:38:07.00 13.737 00:19:28 Yes
6 New Era Loft - PA 11621-AU17-ARPU ShowPiece SIL C 1 15:38:07.00 13.737 00:19:28 Yes
8 New Era Loft - PA 11625-AU17-ARPU Let It Be Told RC C 2 15:38:08.00 13.736 00:19:29 Yes
8 Larry Lewis - OK 8152-AU17-TRPC Destined Class BB C 1 15:38:08.00 13.736 00:19:29 Yes
10 Larry Lewis - OK 8155-AU17-TRPC Mind Raker RCPD C 2 15:38:09.00 13.734 00:19:30 Yes
10 Nesneb Racing Loft - AL 17134-AU17-MOB Widowed BC H 1 15:38:09.00 13.734 00:19:30 Yes
10 Sexton's Loft - IA 31777-AU17-AA Possible Witness BC C 1 15:38:09.00 13.734 00:19:30 Yes
13 Hollywood Lou Loft - FL 0056-AU17-LOU Escapade BC C 2 15:38:10.00 13.732 00:19:31 Yes
14 G & L Loft - OR 2395-AU17-WPC Brick House RC H 1 15:38:12.00 13.729 00:19:33 Yes
14 Sofija Loft - IL 0011-AU17-BEKO Ludacris BBPD C 1 15:38:12.00 13.729 00:19:33 Yes
16 Champ Camp - IN 0224-AU17-CHMP Turning Point BB C 1 15:38:14.00 13.725 00:19:35 Yes
16 Johnny's Automotive - CA 32890-AU17-JEDD Pimlico BB H 1 15:38:14.00 13.725 00:19:35 Yes
16 Jimmy Zheng Loft - MS 0628-AU17-ZHNG Born Again BC C 1 15:38:14.00 13.725 00:19:35 Yes
19 Bluestreak - OK 7889-AU17-TRPC Troubled BL C 1 15:38:16.00 13.721 00:19:37 Yes
20 Sheila Gabler - IL 0220-AU17-ADL Silhouette BB H 1 15:38:17.00 13.720 00:19:38 Yes
21 John Partridge - CA 0623-AU17-PASO Monet BBWF C 1 15:38:18.00 13.718 00:19:39 Yes
22 Champ Camp - IN 0236-AU17-CHMP Classic Tipp BBWF C 2 15:38:20.00 13.714 00:19:41 Yes
22 Jack's Loft - CA 4393-AU17-FOYS Today's Hero SIL C 1 15:38:20.00 13.714 00:19:41 Yes
24 A B C Loft2 - NY 59757-AU17-ARPU Kryptonite BB C 1 15:38:22.00 13.711 00:19:43 Yes
24 Mike's Loft - MS 24869-AU17-JEDD Pato De Plata RC C 1 15:38:22.00 13.711 00:19:43 Yes
24 Sienna Loft - NC 37801-AU17-AA Betty Boop SMOK H 1 15:38:22.00 13.711 00:19:43 Yes
27 Hi-Cal Connection - CA 0779-AU17-HAWI Mad Max BC C 1 15:38:24.00 13.707 00:19:45 Yes
28 Jack's Loft - CA 36719-AU17-ARPU Mas Arena BC C 2 15:38:28.00 13.700 00:19:49 Yes
29 Sexton's Loft - IA 31763-AU17-AA New Apollo BC C 2 15:38:30.00 13.696 00:19:51 Yes
29 New Era Loft - PA 11605-AU17-ARPU Boullione SIL H 3 15:38:30.00 13.696 00:19:51 Yes
31 A B C Loft2 - NY 59760-AU17-ARPU Despite the Challenge BB C 2 15:38:31.00 13.695 00:19:52 Yes
31 Acre Farms - CA 0342-AU17-GENE Grouponner BC H 1 15:38:31.00 13.695 00:19:52 Yes
33 Sienna Loft - NC 36811-AU17-AA Big Blue BB C 2 15:38:33.00 13.691 00:19:54 Yes
33 Huan Qiu Zhang - NC 1711-AU17-JNC Bit Chain BCW C 2 15:38:33.00 13.691 00:19:54 Hold
35 Johnny's Automotive - CA 32891-AU17-JEDD Remember August BC H 2 15:38:36.00 13.686 00:19:57 Yes
36 Johnny's Automotive - CA 32881-AU17-JEDD Visual Entity BB C 3 15:38:37.00 13.684 00:19:58 Yes
37 Bieche-Stevenson - CA 7477-AU17-BIEC Second Opinion BB C 1 15:38:39.00 13.681 00:20:00 Yes
38 Racing Pigeon Mall - WA 0716-AU17-RPM Chariot BROZ C 1 15:38:42.00 13.675 00:20:03 Yes
39 Jimmy Zheng Loft - MS 0651-AU17-ZHNG Epanema Dream BBWF H 2 15:38:43.00 13.673 00:20:04 Yes
40 Champ Camp - IN 0237-AU17-CHMP Dark Runner SMOK C 3 15:38:44.00 13.672 00:20:05 Yes
41 Nesneb Racing Loft - AL 17148-AU17-MOB Auto Mode BCW C 2 15:38:45.00 13.670 00:20:06 Yes
42 John Partridge - CA 0619-AU17-PASO Moon Twister BC H 2 15:38:46.00 13.668 00:20:07 Yes
42 Red Ass Ranch - TX 0149-AU17-RAR Blue Diva BB H 1 15:38:46.00 13.668 00:20:07 Yes
44 Joe Zarachowicz - MD 2270-AU17-CCC Shooter BB C 1 15:38:48.00 13.665 00:20:09 Yes
45 Bluestreak - OK 7897-AU17-TRPC Deep Impression BWFP H 2 15:38:49.00 13.663 00:20:10 Yes
45 Sexton's Loft - IA 31778-AU17-AA The Right Direction BC H 3 15:38:49.00 13.663 00:20:10 Yes
47 Sheila Gabler - IL 0213-AU17-ADL Rockette CWF H 2 15:38:57.00 13.649 00:20:18 Yes
48 Hosanna Lofts - OK 35974-AU17-ARPU LEXICON BB H 1 15:38:58.00 13.647 00:20:19 Yes
49 Spirit In The Sky - IL 0372-AU17-LCC Urzsula BB H 1 15:38:59.00 13.645 00:20:20 Yes
50 A P C Loft - TX 17323-AU17-APC Clever Endeavor BCW C 1 15:39:01.00 13.642 00:20:22 Yes
51 John Partridge - CA 0633-AU17-PASO Pushkin BC C 3 15:39:02.00 13.640 00:20:23 Yes
51 Nesler Boyz - CA 1800-AU17-TCH Destined Choice BCW C 1 15:39:02.00 13.640 00:20:23 Yes
53 Joe Zarachowicz - MD 2298-AU17-CCC klein Lady BB H 2 15:39:05.00 13.635 00:20:26 Yes
54 Racing Pigeon Mall - WA 0725-AU17-RPM Rizer BC C 2 15:39:06.00 13.633 00:20:27 Yes
55 Racing Pigeon Mall - WA 0714-AU17-RPM Main Asset BB C 3 15:39:07.00 13.631 00:20:28 Yes
55 Sexton's Loft - IA 31790-AU17-AA Instant Pleasure BC H 4 15:39:07.00 13.631 00:20:28 Yes
57 Champ Camp - IN 0230-AU17-CHMP Rain Man BB C 4 15:39:10.00 13.626 00:20:31 Yes
58 Mike's Loft - MS 27649-AU17-JEDD Kyle Picked It BB H 2 15:39:13.00 13.621 00:20:34 Yes
59 Longjohn Loft - OK 1183-AU17-FOYS ACHILLES SIL C 1 15:39:14.00 13.619 00:20:35 Yes
59 Sarrett Racing Pigeons - TX 7049-AU17-PPH Hailea's Run SMOK H 1 15:39:14.00 13.619 00:20:35 Yes
61 Goshentown Lofts - TN 1784-AU17-NPA RollerBall BB C 1 15:39:15.00 13.617 00:20:36 Yes
62 A B C Loft2 - NY 11768-AU17-ARPU Chances Are BB H 3 15:39:18.00 13.612 00:20:39 Yes
63 Racing Pigeon Mall - WA 0715-AU17-RPM Wow Factor BB H 4 15:39:20.00 13.608 00:20:41 Yes
64 Champ Camp - IN 0240-AU17-CHMP Iron Mike BB C 5 15:39:26.00 13.598 00:20:47 Yes
65 Daehn/Miele - FL 0403-AU17-NWFI The Double BBWF C 1 15:39:31.00 13.589 00:20:52 Yes
66 Daehn/Miele - FL 3837-AU17-FOYS French Braid BB H 2 15:39:33.00 13.585 00:20:54 Yes
67 Champ Camp - IN 0231-AU17-CHMP NEVER BEFORE BB C 6 15:39:42.00 13.570 00:21:03 Yes
68 Sheila Gabler - IL 0202-AU17-ADL National Two BB C 3 15:39:44.00 13.566 00:21:05 Yes
69 Bolgar Loft - CA 15841-AU17-FOYS Darejani SLAT H 1 15:39:45.00 13.565 00:21:06 Yes
70 Red Ass Ranch - TX 0154-AU17-RAR I Am One BC H 2 15:39:47.00 13.561 00:21:08 Yes
71 Crescendo Loft - NM 18439-AU17-AA Dhronex BB C 1 15:39:51.00 13.554 00:21:12 Yes
72 Sexton's Loft - IA 31781-AU17-AA Mitigator BB C 5 15:40:04.00 13.532 00:21:25 Yes
73 Dal-Tex R P C - TX 0444-AU17-DLLS Gray Eagle GR C 2 15:40:18.00 13.507 00:21:39 Yes
74 Walstons Warriors - NC 7404-AU17-GL NAPOLEON BB C 2 15:40:25.00 13.495 00:21:46 Yes
74 Crescendo Loft - NM 18441-AU17-AA Horizon Echo BB C 2 15:40:25.00 13.495 00:21:46 Yes
74 Daehn/Miele - FL 3833-AU17-FOYS DriftWood GR C 3 15:40:25.00 13.495 00:21:46 Yes
77 Racing Pigeon Mall - WA 0731-AU17-RPM Lucky Dollar BB C 5 15:40:30.00 13.487 00:21:51 Yes
78 G & L Loft - OR 2394-AU17-WPC Affirmation BB C 2 15:40:34.00 13.480 00:21:55 Yes
79 Jack's Loft - CA 4395-AU17-FOYS Chosen Pleasure BBPD H 3 15:40:39.00 13.471 00:22:00 Yes
80 New Era Loft - PA 11619-AU17-ARPU Danger Zone BC H 4 15:40:43.00 13.464 00:22:04 Yes
80 Joe Zarachowicz - MD 2284-AU17-CCC Never Too Late GR C 3 15:40:43.00 13.464 00:22:04 Yes
82 New Era Loft - PA 11626-AU17-ARPU Key Witness BC C 5 15:40:44.00 13.463 00:22:05 Yes
82 Ken Easley-Silvercreek - NM 5140-AU17-ESLY Kees BB H 1 15:40:44.00 13.463 00:22:05 Hold
84 Hi-Cal Connection - CA 0758-AU17-HCAL Blue Rachel BBWF H 2 15:40:51.00 13.451 00:22:12 Yes
85 Red Ass Ranch - TX 0156-AU17-RAR Fix me Now BB H 3 15:40:55.00 13.444 00:22:16 Yes
86 A D L Loft - IL 0170-AU17-ADL Miss Euro BB H 1 15:40:57.00 13.440 00:22:18 Yes
87 Hi-Cal Connection - CA 0782-AU17-HCAL Sea Bee BB C 3 15:41:00.00 13.435 00:22:21 Yes
88 Larry Lewis - OK 8142-AU17-TRPC Travel Frenzy BC C 3 15:41:10.00 13.418 00:22:31 Yes
89 El Dorado Loft - TX 0184-AU17-TXAS Manfreddy BKCW C 1 15:41:17.00 13.406 00:22:38 Yes
90 Dream Team - VT 0421-AU17-JCZL National One BC C 1 15:41:18.00 13.404 00:22:39 Yes
91 Goshentown Lofts - TN 1777-AU17-NPA Whisper BB H 2 15:41:19.00 13.403 00:22:40 Yes
92 Hollywood Lou Loft - FL 0067-AU17-LOU Key Witness SMBB C 3 15:41:21.00 13.399 00:22:42 Yes
93 Dal-Tex R P C - TX 0450-AU17-DLLS Rustic Pharoh BBWF C 3 15:41:24.00 13.394 00:22:45 Yes
94 Hi-Cal Connection - CA 0789-AU17-HCAL Red Heat RC C 4 15:41:25.00 13.393 00:22:46 Yes
95 A P C Loft - TX 17369-AU17-APC Let It Be Known BC C 2 15:41:27.00 13.389 00:22:48 Yes
96 Daehn/Miele - FL 3836-AU17-FOYS Lasting Impression BB C 4 15:41:34.00 13.377 00:22:55 Yes
97 New Era Loft - PA 11622-AU17-ARPU American Joy ML H 6 15:41:38.00 13.370 00:22:59 Yes
98 John Partridge - CA 0629-AU17-PASO Americana RC C 4 15:41:40.00 13.367 00:23:01 Yes
99 1-Tonyloft - VA 0639-AU17-ZHNG Check me Twice BC C 1 15:41:46.00 13.357 00:23:07 Yes
100 Aurelio Aranda - AZ 42210-AU17-AA SHREK BBWF C 2 15:41:50.00 13.350 00:23:11 Yes

There are 280 bird records

Note: These Race Results are unofficial and subject to change until verified by the Race Committee and declared final.